CTN4W LDZA-LDZD

Flight info

Callsign CTN4W
Flight time 0h 37m
Altitude 20000
Route KOTOR M986 KULEN/N0395F190 M986 LOS
Aircraft A319/M-SDE3FGHIRWY/LB1

Departure

Time 2026-04-28 09:53
Airport Zagreb Franjo Tuđman International Airport (LDZA)

Arrival

Time 2026-04-28 10:31
Airport Zadar Airport (LDZD)
Time Latitude Longitude Altitude Speed Heading
2026-04-28 09:21 45.74291 16.08006 359 ft 0 kts 136°
2026-04-28 09:45 45.74309 16.07983 363 ft 4 kts 141°
2026-04-28 09:45 45.74329 16.07959 363 ft 3 kts 137°
2026-04-28 09:46 45.74344 16.07936 365 ft 4 kts 113°
2026-04-28 09:46 45.74345 16.07905 366 ft 4 kts 54°
2026-04-28 09:46 45.74329 16.07879 367 ft 2 kts 46°
2026-04-28 09:46 45.74329 16.07878 360 ft 0 kts 46°
2026-04-28 09:48 45.74343 16.07894 363 ft 9 kts 34°
2026-04-28 09:48 45.74421 16.07856 359 ft 14 kts 317°
2026-04-28 09:49 45.74496 16.07758 359 ft 15 kts 317°
2026-04-28 09:49 45.74533 16.07637 365 ft 14 kts 242°
2026-04-28 09:49 45.74464 16.07532 359 ft 15 kts 227°
2026-04-28 09:49 45.74393 16.07423 362 ft 15 kts 226°
2026-04-28 09:50 45.74320 16.07313 363 ft 15 kts 226°
2026-04-28 09:50 45.74245 16.07200 366 ft 16 kts 226°
2026-04-28 09:50 45.74168 16.07084 359 ft 16 kts 227°
2026-04-28 09:50 45.74090 16.06964 365 ft 17 kts 227°
2026-04-28 09:51 45.74009 16.06841 362 ft 17 kts 226°
2026-04-28 09:51 45.73927 16.06715 365 ft 18 kts 227°
2026-04-28 09:51 45.73842 16.06587 361 ft 18 kts 226°
2026-04-28 09:51 45.73755 16.06456 364 ft 19 kts 227°
2026-04-28 09:52 45.73799 16.06318 360 ft 17 kts 318°
2026-04-28 09:52 45.73885 16.06264 361 ft 14 kts 27°
2026-04-28 09:52 45.73923 16.06313 361 ft 0 kts 46°
2026-04-28 09:52 45.73928 16.06322 361 ft 4 kts 46°
2026-04-28 09:53 45.74116 16.06607 360 ft 78 kts 47°
2026-04-28 09:53 45.74639 16.07405 361 ft 138 kts 46°
2026-04-28 09:53 45.75364 16.08533 693 ft 154 kts 54°
2026-04-28 09:53 45.75806 16.09894 1342 ft 151 kts 73°
2026-04-28 09:54 45.76018 16.11359 2059 ft 150 kts 83°
2026-04-28 09:54 45.76035 16.12908 2508 ft 164 kts 95°
2026-04-28 09:54 45.75798 16.14632 2890 ft 188 kts 103°
2026-04-28 09:54 45.75493 16.16585 3306 ft 213 kts 103°
2026-04-28 09:55 45.75160 16.18763 3909 ft 230 kts 103°
2026-04-28 09:55 45.74818 16.21026 4786 ft 236 kts 103°
2026-04-28 09:55 45.74469 16.23343 5679 ft 241 kts 103°
2026-04-28 09:55 45.74110 16.25727 6510 ft 250 kts 104°
2026-04-28 09:56 45.73730 16.28214 6892 ft 258 kts 105°
2026-04-28 09:56 45.73051 16.30577 6987 ft 257 kts 123°
2026-04-28 09:56 45.71938 16.32552 7001 ft 254 kts 138°
2026-04-28 09:56 45.70638 16.34266 7001 ft 255 kts 139°
2026-04-28 09:57 45.69332 16.35980 6991 ft 254 kts 141°
2026-04-28 09:57 45.67785 16.37107 6990 ft 250 kts 171°
2026-04-28 09:57 45.66073 16.36986 6995 ft 254 kts 200°
2026-04-28 09:57 45.64570 16.35521 7525 ft 269 kts 227°
2026-04-28 09:58 45.63279 16.33548 8457 ft 273 kts 227°
2026-04-28 09:58 45.61967 16.31554 9425 ft 277 kts 227°
2026-04-28 09:58 45.60637 16.29539 10304 ft 281 kts 228°
2026-04-28 09:58 45.59286 16.27489 11131 ft 286 kts 228°
2026-04-28 09:59 45.57913 16.25404 11946 ft 290 kts 229°
2026-04-28 09:59 45.56524 16.23292 12774 ft 294 kts 229°
2026-04-28 09:59 45.55112 16.21148 13606 ft 298 kts 229°
2026-04-28 09:59 45.53682 16.18978 14358 ft 302 kts 229°
2026-04-28 10:00 45.52232 16.16782 15088 ft 306 kts 230°
2026-04-28 10:00 45.50772 16.14564 15839 ft 308 kts 230°
2026-04-28 10:00 45.49298 16.12326 16577 ft 311 kts 230°
2026-04-28 10:00 45.47967 16.09903 17292 ft 311 kts 242°
2026-04-28 10:01 45.47074 16.07106 17939 ft 314 kts 255°
2026-04-28 10:01 45.46657 16.03966 18072 ft 333 kts 268°
2026-04-28 10:01 45.46498 16.00575 18217 ft 353 kts 268°
2026-04-28 10:01 45.46322 15.97012 18475 ft 367 kts 267°
2026-04-28 10:02 45.46131 15.93359 18980 ft 372 kts 267°
2026-04-28 10:02 45.45932 15.89664 19581 ft 375 kts 267°
2026-04-28 10:02 45.45729 15.85949 19980 ft 377 kts 267°
2026-04-28 10:02 45.45519 15.82221 20105 ft 380 kts 266°
2026-04-28 10:03 45.45302 15.78386 20138 ft 396 kts 266°
2026-04-28 10:03 45.45081 15.74452 20135 ft 401 kts 266°
2026-04-28 10:03 45.44860 15.70494 20134 ft 402 kts 266°
2026-04-28 10:03 45.44636 15.66526 20134 ft 401 kts 266°
2026-04-28 10:04 45.44361 15.62574 20134 ft 402 kts 262°
2026-04-28 10:04 45.43650 15.58720 20135 ft 404 kts 251°
2026-04-28 10:04 45.42437 15.55100 20135 ft 407 kts 241°
2026-04-28 10:04 45.40759 15.51842 20138 ft 411 kts 231°
2026-04-28 10:05 45.38860 15.48802 20135 ft 411 kts 231°
2026-04-28 10:05 45.36958 15.45775 20134 ft 410 kts 231°
2026-04-28 10:05 45.35054 15.42754 20129 ft 411 kts 231°
2026-04-28 10:05 45.33146 15.39730 20127 ft 411 kts 231°
2026-04-28 10:06 45.31242 15.36709 20114 ft 411 kts 231°
2026-04-28 10:06 45.29337 15.33687 20115 ft 411 kts 231°
2026-04-28 10:06 45.27427 15.30662 20111 ft 411 kts 231°
2026-04-28 10:06 45.25521 15.27640 20114 ft 411 kts 231°
2026-04-28 10:07 45.23616 15.24614 20116 ft 411 kts 231°
2026-04-28 10:07 45.21711 15.21589 20110 ft 411 kts 231°
2026-04-28 10:07 45.19809 15.18569 20108 ft 411 kts 231°
2026-04-28 10:07 45.17903 15.15550 20109 ft 411 kts 231°
2026-04-28 10:08 45.15862 15.12700 20094 ft 414 kts 223°
2026-04-28 10:08 45.13554 15.10234 20098 ft 416 kts 219°
2026-04-28 10:08 45.11222 15.07801 20097 ft 416 kts 219°
2026-04-28 10:08 45.08898 15.05372 20091 ft 416 kts 219°
2026-04-28 10:09 45.06571 15.02937 20092 ft 416 kts 219°
2026-04-28 10:09 45.04244 15.00508 20084 ft 416 kts 219°
2026-04-28 10:09 45.01915 14.98078 20081 ft 416 kts 219°
2026-04-28 10:09 44.99591 14.95653 20084 ft 416 kts 219°
2026-04-28 10:10 44.97261 14.93223 20079 ft 416 kts 219°
2026-04-28 10:10 44.94930 14.90799 20070 ft 416 kts 219°
2026-04-28 10:10 44.92596 14.88376 20072 ft 416 kts 219°
2026-04-28 10:10 44.90265 14.85957 20072 ft 416 kts 219°
2026-04-28 10:11 44.87934 14.83539 20067 ft 416 kts 219°
2026-04-28 10:11 44.85600 14.81121 20068 ft 416 kts 219°
2026-04-28 10:11 44.83262 14.78704 20069 ft 416 kts 219°
2026-04-28 10:11 44.80927 14.76295 20058 ft 416 kts 219°
2026-04-28 10:12 44.78590 14.73884 20063 ft 417 kts 219°
2026-04-28 10:12 44.76254 14.71474 20062 ft 417 kts 219°
2026-04-28 10:12 44.73917 14.69064 20059 ft 416 kts 219°
2026-04-28 10:12 44.71580 14.66653 20059 ft 416 kts 219°
2026-04-28 10:13 44.69245 14.64246 20057 ft 416 kts 219°
2026-04-28 10:13 44.66909 14.61841 20058 ft 416 kts 219°
2026-04-28 10:13 44.64573 14.59437 20059 ft 416 kts 219°
2026-04-28 10:13 44.62232 14.57035 20051 ft 417 kts 219°
2026-04-28 10:14 44.59894 14.54640 20053 ft 417 kts 218°
2026-04-28 10:14 44.57361 14.52620 20054 ft 422 kts 205°
2026-04-28 10:14 44.54511 14.51581 20056 ft 428 kts 189°
2026-04-28 10:14 44.51521 14.51658 20046 ft 434 kts 173°
2026-04-28 10:15 44.48635 14.52860 19874 ft 432 kts 157°
2026-04-28 10:15 44.46113 14.55117 19632 ft 432 kts 142°
2026-04-28 10:15 44.43838 14.57854 19388 ft 430 kts 141°
2026-04-28 10:15 44.41574 14.60573 19150 ft 428 kts 141°
2026-04-28 10:16 44.39315 14.63269 18914 ft 426 kts 141°
2026-04-28 10:16 44.37062 14.65945 18680 ft 424 kts 141°
2026-04-28 10:16 44.34818 14.68609 18447 ft 423 kts 140°
2026-04-28 10:16 44.32761 14.71538 18195 ft 422 kts 132°
2026-04-28 10:17 44.30837 14.74625 17923 ft 420 kts 132°
2026-04-28 10:17 44.28924 14.77693 17648 ft 416 kts 132°
2026-04-28 10:17 44.27037 14.80714 17165 ft 410 kts 132°
2026-04-28 10:17 44.25169 14.83696 16649 ft 406 kts 132°
2026-04-28 10:18 44.23318 14.86644 16130 ft 402 kts 132°
2026-04-28 10:18 44.21481 14.89569 15596 ft 399 kts 132°
2026-04-28 10:18 44.19660 14.92472 15064 ft 396 kts 132°
2026-04-28 10:18 44.17853 14.95352 14492 ft 393 kts 132°
2026-04-28 10:19 44.16059 14.98207 13941 ft 391 kts 132°
2026-04-28 10:19 44.14269 15.01052 13300 ft 389 kts 132°
2026-04-28 10:19 44.12491 15.03872 12717 ft 385 kts 132°
2026-04-28 10:19 44.10735 15.06659 12120 ft 381 kts 132°
2026-04-28 10:20 44.08995 15.09415 11503 ft 377 kts 131°
2026-04-28 10:20 44.07272 15.12139 10949 ft 372 kts 131°
2026-04-28 10:20 44.05602 15.14777 10813 ft 355 kts 132°
2026-04-28 10:20 44.04008 15.17293 10692 ft 339 kts 131°
2026-04-28 10:21 44.02483 15.19698 10575 ft 325 kts 131°
2026-04-28 10:21 44.01015 15.22014 10450 ft 313 kts 131°
2026-04-28 10:21 43.99601 15.24240 10293 ft 303 kts 132°
2026-04-28 10:21 43.98223 15.26410 10105 ft 297 kts 131°
2026-04-28 10:22 43.96857 15.28562 9996 ft 296 kts 131°
2026-04-28 10:22 43.95487 15.30718 9576 ft 299 kts 131°
2026-04-28 10:22 43.94118 15.32869 9196 ft 296 kts 131°
2026-04-28 10:22 43.93214 15.34287 8922 ft 296 kts 131°
2026-04-28 10:23 43.91397 15.37128 8399 ft 294 kts 132°
2026-04-28 10:23 43.90507 15.38522 8155 ft 291 kts 132°
2026-04-28 10:23 43.89163 15.40625 7756 ft 289 kts 132°
2026-04-28 10:23 43.87886 15.42717 7339 ft 280 kts 123°
2026-04-28 10:24 43.87245 15.45173 6967 ft 268 kts 94°
2026-04-28 10:24 43.87504 15.47648 6589 ft 256 kts 65°
2026-04-28 10:24 43.88493 15.49624 6202 ft 247 kts 44°
2026-04-28 10:24 43.89675 15.51300 5835 ft 240 kts 44°
2026-04-28 10:25 43.90828 15.52937 5485 ft 234 kts 44°
2026-04-28 10:25 43.91951 15.54533 5140 ft 228 kts 44°
2026-04-28 10:25 43.93169 15.55863 4803 ft 219 kts 19°
2026-04-28 10:25 43.94630 15.55992 4483 ft 210 kts 341°
2026-04-28 10:26 43.95813 15.54924 4230 ft 200 kts 312°
2026-04-28 10:26 43.96760 15.53549 3916 ft 195 kts 315°
2026-04-28 10:26 43.97708 15.52277 3639 ft 184 kts 316°
2026-04-28 10:26 43.98600 15.51100 3407 ft 168 kts 316°
2026-04-28 10:27 43.99401 15.50043 3171 ft 151 kts 315°
2026-04-28 10:27 44.00137 15.49068 2962 ft 143 kts 315°
2026-04-28 10:27 44.00847 15.48125 2777 ft 140 kts 315°
2026-04-28 10:27 44.01546 15.47193 2596 ft 139 kts 315°
2026-04-28 10:28 44.02243 15.46261 2411 ft 139 kts 314°
2026-04-28 10:28 44.02938 15.45325 2218 ft 139 kts 313°
2026-04-28 10:28 44.03631 15.44389 2044 ft 139 kts 314°
2026-04-28 10:29 44.05016 15.42521 1664 ft 139 kts 312°
2026-04-28 10:29 44.05704 15.41590 1466 ft 137 kts 312°
2026-04-28 10:29 44.06387 15.40666 1288 ft 136 kts 312°
2026-04-28 10:29 44.07065 15.39747 1114 ft 136 kts 313°
2026-04-28 10:30 44.07737 15.38840 931 ft 134 kts 314°
2026-04-28 10:30 44.08403 15.37940 755 ft 133 kts 314°
2026-04-28 10:30 44.09064 15.37048 578 ft 132 kts 315°
2026-04-28 10:30 44.09731 15.36171 402 ft 132 kts 314°
2026-04-28 10:31 44.10381 15.35296 270 ft 124 kts 312°
2026-04-28 10:31 44.10888 15.34593 264 ft 79 kts 314°
2026-04-28 10:31 44.11146 15.34238 263 ft 16 kts 302°
2026-04-28 10:31 44.11101 15.34142 268 ft 10 kts 225°
2026-04-28 10:32 44.11054 15.34078 269 ft 9 kts 226°
2026-04-28 10:32 44.11003 15.34038 270 ft 9 kts 167°
2026-04-28 10:32 44.10955 15.34097 270 ft 10 kts 136°
2026-04-28 10:32 44.10905 15.34165 270 ft 10 kts 136°
2026-04-28 10:33 44.10852 15.34238 270 ft 11 kts 136°
2026-04-28 10:33 44.10793 15.34316 270 ft 12 kts 136°
2026-04-28 10:33 44.10731 15.34400 270 ft 13 kts 135°
2026-04-28 10:33 44.10666 15.34490 270 ft 14 kts 135°
2026-04-28 10:34 44.10596 15.34584 270 ft 14 kts 139°
2026-04-28 10:34 44.10522 15.34682 270 ft 15 kts 135°
2026-04-28 10:34 44.10445 15.34787 270 ft 16 kts 136°
2026-04-28 10:34 44.10363 15.34897 270 ft 17 kts 135°
2026-04-28 10:35 44.10278 15.35013 270 ft 18 kts 135°
2026-04-28 10:35 44.10189 15.35134 270 ft 18 kts 136°
2026-04-28 10:35 44.10097 15.35260 270 ft 19 kts 135°
2026-04-28 10:35 44.10001 15.35390 270 ft 20 kts 135°
2026-04-28 10:36 44.09913 15.35505 270 ft 14 kts 146°
2026-04-28 10:36 44.09821 15.35537 270 ft 11 kts 171°
2026-04-28 10:36 44.09789 15.35520 270 ft 3 kts 233°
2026-04-28 10:36 44.09786 15.35491 270 ft 1 kts 295°
2026-04-28 10:37 44.09800 15.35472 270 ft 3 kts 314°
2026-04-28 10:37 44.09822 15.35438 270 ft 2 kts 310°